Retour au catalogue

COSMOS 1924

ActifNavigationLEO
NORAD 18937·PAYLOAD·🇷🇺 Russia

Lancé Mar 11, 1988 depuis Plesetsk Cosmodrome

Loading…

Prochains Passages (prochaines 24 heures)

TLE

FraisSource: Space-Track

Époque: Sep 14, 2026, 13:20 UTC

1 18937U 88016A   26257.55559187 -.00000010  00000-0  39196-4 0  9992
2 18937  74.0092  11.1576 0035061 265.2508 107.0414 12.44623359749798

Suivez COSMOS 1924 en temps réel avec AllMySat

Download on the App Store